Simultaneous Nadir Overpasses (SNOs) Predictions

Prediction of SNOs between GOES-15 and TERRA Satellite Orbit:

Table of predicted SNOs for the next 14.0 days since TLE Epoch: 3/29/2014
Index Date Time (GOES-15) GOES-15 Lat,Lon TERRA Lat,Lon Distance(km) Time Diff (sec)
1 03/29/2014 07:22:13 -0.04,-135.16 0.35,-133.44 195.85 80
2 03/29/2014 19:43:29 0.03,-135.18 0.75,-138.59 387.59 80
3 03/31/2014 19:31:19 0.03,-135.24 0.13,-135.64 46.09 80
4 04/02/2014 19:21:49 0.03,-135.29 -0.52,-132.69 295.04 80
5 04/03/2014 07:43:13 -0.03,-135.28 -0.60,-137.88 295.50 80
6 04/05/2014 07:28:23 -0.03,-135.33 0.09,-134.93 45.25 80
7 04/07/2014 07:16:11 -0.02,-135.36 0.68,-131.97 385.54 80
8 04/07/2014 19:37:27 0.02,-135.38 0.39,-137.13 198.54 80
9 04/09/2014 19:27:55 0.02,-135.42 -0.25,-134.17 141.67 80
10 04/10/2014 07:49:19 -0.01,-135.41 -0.85,-139.36 448.63 80
11 04/11/2014 19:15:43 0.02,-135.45 -0.91,-131.21 481.69 80




NCC Satellite Simultaneous Nadir Overpasses (SNOs) Prediction Service
